STARLINK-33937, 63704

Orbit data source: Space-Track

STARLINK-33937, 63704 is a payload satellite owned by SpaceX/Seattle (US) in LEO that was launched on Mon, 28 Apr 2025 UTC via an FALCON 9 launch vehicle from the Air Force Western Test Range (AFWTR). Payload-class satellites include a variety of spacecraft equipped with specific instruments for various scientific and technological missions. These include communications satellites like Starlink; space stations such as the ISS; scientific satellites like the Hubble; Earth observation satellites from companies like Planet Labs, Umbra, and HawkEye 360; GPS; miniature CubeSats for education and research; and military/defense satellites.

Loading next visibility...
Identifier
63704, 2025-087H
Orbit
LEO
Country
Flag of USUS
Related business
Manufacturer
SpaceX/Seattle
Mission
Operational Commercial Communications
Bus & Motor
STARLINK V2MO, Unknown motor
Mass
575 kg wet, ~530 kg dry
Launch date (UTC)
2025-04-28 (8 months ago)
Launch vehicle
FALCON 9
Launch site
Air Force Western Test Range (AFWTR)
Object type
Payload
Rocket body
Debris
Shape & HBR
Box + 2 Pan, 17.7 m
Radar Cross Section
36.964 m², Large (>1 m²)

Expand to show TLE details & history
Last TLE update: 17 hours ago

TLE from 17 hours ago
0 STARLINK-33937
1 63704U 25087H   25348.91151892  .00020605  00000-0  70624-3 0  9995
2 63704  53.1587 253.0636 0001812 102.2983 257.8220 15.30182480 36224
Epoch: 2025-12-14T21:52Z
TLE epoch observation values (Epoch: 2025-12-14T21:52:35.234Z)
Latitude
-0.00009°
Longitude
-158.90092°
Altitude
476.429 km
Speed
7.629 km/s
True Right ascension
16h 52m 15s
True Declination
0° 00' 00"
Sunlit
Object was in daylight at epoch
Visualization orbit readout
Latitude
Unknown
Longitude
Unknown
Altitude
Unknown
Speed
Unknown
Apparent Right ascension
Unknown
Apparent Declination
Unknown
Sunlit
N/A
Visualization observer readout
Local Sidereal Time
13:25:44
Azimuth
Unknown
Elevation
Unknown
Doppler factor
Unknown
Orbital elements
Apogee altitude
476.766 km
Perigee altitude
474.282 km
Semi-major axis
6,853.661 km
Eccentricity
0.00018
Inclination
53.1587°
RAAN
253.0636°
Arg. of periapsis
102.2983°
True anomaly
257.8017°
Mean anomaly
257.822°
Eccentric anomaly
257.81185°
Mean motion
3.82524 °/min
Orbital period
94.11 mins
BSTAR
0.00070624
Loading maneuver chart data...
Computing Atmospheric mass density...
Loading historical data...
Loading historical data...
Loading historical data...
Loading historical data...
Loading historical data...
Loading historical data...
Loading historical data...

Documentation

Showing up to 5 results
|